Tracking 20376 objects as of 22-Feb-2020
HD Live streaming from Space Station
objects crossing your sky now
Track the group of recently launched Starlink satellites

STARLINK-1165

Track STARLINK-1165 now!
10-day predictions
STARLINK-1165 is classified as:


NORAD ID: 45059
Int'l Code: 2020-006R
Perigee: 419.4 km
Apogee: 421.3 km
Inclination: 53.0 °
Period: 92.8 minutes
Semi major axis: 6791 km
RCS: Unknown
Launch date: January 29, 2020
Source: United States (US)
Launch site: AIR FORCE EASTERN TEST RANGE (AFETR)
aabbcc
Your satellite tracking list
Your tracking list is empty




NASA's NSSDC Master Catalog

Two Line Element Set (TLE):
1 45059U 20006R   20052.91667824 -.00093587 +00000-0 -15843-2 0  9990
2 45059 052.9969 120.9199 0001425 064.3220 164.7835 15.51201277004015
Source of the keplerian elements: AFSPC